Other Public Products
Issued by NWS Grand Forks, ND

Home | Current Version | Previous Version | Graphics & Text | Print | Product List | Glossary On
Versions: 1 2 3 4 5 6 7 8 9 10 11 12 13 14 15 16 17 18 19 20 21 22 23 24 25 26 27 28 29 30 31 32 33 34 35 36 37 38 39 40 41 42 43 44 45 46 47 48 49 50
000
FPUS83 KFGF 140710
OPUFGF
PRAIRIE TO PINES WEATHER ROUNDUP
NATIONAL WEATHER SERVICE EASTERN NORTH DAKOTA/GRAND FORKS ND
100 AM CST THU DEC 14 2017

 **SATELLITE DATA USED TO AUGMENT SKY COVER AT AUTOMATED STATIONS**
 *****  WEATHER ACROSS EASTERN NORTH DAKOTA  *****

CITY           SKY/WX    TMP DP  RH WIND       PRES   REMARKS
GRAND FORKS    CLOUDY    17  13  84 NW6       30.00S WCI   9
GRND FORKS AFB CLOUDY    17  12  82 CALM      29.99F
GRND FORKS NWS   N/A     16 N/A N/A NW2         N/A
BUXTON         NOT AVBL
DEVILS LAKE    CLOUDY    20  18  92 CALM      29.96F
FARGO          CLOUDY    19  14  81 N7        30.01F WCI  10
WAHPETON ARPT    N/A     19  14  79 NW8       30.02R WCI   9
$$

 *****  WEATHER ACROSS CENTRAL AND WESTERN NORTH DAKOTA  *****

CITY           SKY/WX    TMP DP  RH WIND       PRES   REMARKS
JAMESTOWN      CLOUDY    25  24  96 CALM      29.95F
BISMARCK       FAIR      28  24  85 SW5       29.98F WCI  23
MINOT          CLOUDY    32  27  81 W9        29.93F WCI  24
MINOT AFB      CLOUDY    29  26  87 W6        29.93S WCI  23
GARRISON         N/A     30  27  88 W10       29.95F WCI  21
WILLISTON      CLOUDY    35  27  72 NW17G25   30.03R WCI  25
DICKINSON      MOCLDY    34  27  75 NW17      29.97S WCI  23
HETTINGER      CLOUDY    35  26  69 NW17      30.01F WCI  25
$$

 *****  OTHER OBSERVATIONS NORTHEAST NORTH DAKOTA  *****

CITY           SKY/WX    TMP DP  RH WIND       PRES   REMARKS
WALHALLA       FAIR      18  19 100 W5        29.97F WCI  11
LANGDON        CLOUDY    18  19 100 NW7       29.94S WCI   8
CAVALIER       CLOUDY    18  14  86 SW5       29.98F WCI  11
GRAFTON        CLOUDY    18  14  86 NW5       30.02R WCI  11
CANDO          CLOUDY    21  21 100 SE5       29.97S WCI  15
FORT TOTTEN      N/A     22  19  89 CALM      29.95S
ROLLA          MIX PCPN  23  23 100 S8        29.92F WCI  14
RUGBY          CLOUDY    27  27 100 S5        29.92F WCI  21
 ***** THE ABOVE OBSERVATIONS ARE NON NWS ARE NOT QUALITY
        CONTROLLED AND MAY MIS-REPORT RAIN FOR SNOW...
$$

 *****  OTHER OBSERVATIONS SOUTHEAST NORTH DAKOTA *****

CITY           SKY/WX    TMP DP  RH WIND       PRES   REMARKS
COOPERSTOWN    CLOUDY    21  19  93 NW8       29.97R WCI  12
VALLEY CITY    CLOUDY    21  21 100 CALM      29.98F
OAKES            N/A     23  23 100 CALM      29.98F
GWINNER          N/A     21  18  86 CALM      29.99S
SHEYENNE NWR     N/A     19  15  85 N2        29.95S
BUFFALO        NOT AVBL
WYNDMERE       NOT AVBL
 ***** THE ABOVE OBSERVATIONS ARE NON NWS ARE NOT QUALITY
       CONTROLLED AND MAY MIS-REPORT RAIN FOR SNOW...
$$

  *****  WEATHER ACROSS NORTHERN MINNESOTA  *****

CITY           SKY/WX    TMP DP  RH WIND       PRES   REMARKS
FLAG ISLAND    CLOUDY     9   5  85 NW5       29.93S WCI   0
WARROAD        FLURRIES   9   5  85 W3        29.95F
ROSEAU         CLOUDY    14  10  85 S3        29.95F
HALLOCK        CLOUDY    18  12  79 W7        29.98S WCI   8
THF RVR FALLS  FLURRIES  13  10  88 W9        29.99  WCI   1
HALSTAD        NOT AVBL
FOSSTON        FLURRIES  10   9  92 W8        29.97R WCI  -1
BAUDETTE       CLOUDY     5   3  91 W5        29.93R WCI  -4
WASKISH        FLURRIES  12  10  92 W5        29.94R WCI   4
CROOKSTON      CLOUDY    16  12  86 CALM      30.01F
$$
  *****  WEATHER ACROSS CENTRAL AND WEST MINNESOTA  *****

CITY           SKY/WX    TMP DP  RH WIND       PRES   REMARKS
BEMIDJI        FLURRIES  12   9  87 W6        29.93S WCI   2
PARK RAPIDS    CLOUDY    13  10  88 W6        29.93S WCI   4
WADENA         FLURRIES  16  10  79 W7        29.94S WCI   6
DETROIT LAKES  CLOUDY    16  14  93 NW6       29.97S WCI   7
MOORHEAD       MIX PCPN  16  12  86 CALM      30.01F
FERGUS FALLS   CLOUDY    18  12  79 NW8       30.03R WCI   7
ELBOW LAKE     CLOUDY    18  15  88 NW6       29.99R WCI  10
MORRIS MN      CLOUDY    19  16  86 NW7       29.98S WCI  10
STAPLES        CLOUDY    12  10  92 NW5       29.95R WCI   4
WHEATON        CLOUDY    19  16  86 N3        30.03R
$$
  *****  WEATHER ELSEWHERE ACROSS MINNESOTA  *****

CITY           SKY/WX    TMP DP  RH WIND       PRES   REMARKS
DULUTH         MOCLDY     4   3  96 SW3       29.90F
INTRNTL FALLS  CLOUDY    13  10  88 W5        29.91F WCI   5
ELY            FLURRIES   9   7  92 W3        29.89S
CLOQUET        MOCLDY     5   1  85 CALM      29.91F
BRAINERD       CLOUDY    16  11  80 NW7       29.95F WCI   6
HIBBING        CLOUDY    14  10  84 NW5       29.91S FOG     WCI   6
ALEXANDRIA     CLOUDY    18  13  80 CALM      29.96S
SAINT CLOUD    FAIR       8   6  92 SW3       29.98R
MINNEAPOLIS    CLOUDY    18  15  88 W6        29.99R WCI  10
$$

  *****  WEATHER ACROSS SOUTH DAKOTA  *****

CITY           SKY/WX    TMP DP  RH WIND       PRES   REMARKS
SIOUX FALLS    CLOUDY    30  27  88 CALM      29.98F
BROOKINGS      CLOUDY    26  24  92 CALM      29.98R
WATERTOWN      CLOUDY    25  24  96 N7        29.95S WCI  17
HURON          CLOUDY    33  27  78 NW8       29.99F
SISSETON         N/A     21  18  88 N5        29.99S WCI  15
ABERDEEN       CLOUDY    27  27 100 CALM      29.99F
MITCHELL       CLOUDY    34  26  72 W6        30.01F
PIERRE         FAIR      30  26  85 W6        30.02F WCI  24
MOBRIDGE       FAIR      29  25  85 NW8       29.98S WCI  21
RAPID CITY     CLOUDY    34  28  79 N16       30.08F WCI  24
$$

  *****  SOME WEATHER IN NEARBY STATES *****

CITY           SKY/WX    TMP DP  RH WIND       PRES   REMARKS
GLASGOW MT     FAIR      30  25  81 NW14      30.14S WCI  19
GREAT FALLS MT CLOUDY    29  21  72 W7        30.39R WCI  22
CHEYENNE WY    MIX PCPN  27  25  92 N16G22    30.14S WCI  15
SCOTTSBLUFF NE CLOUDY    33  30  88 W12       30.15F WCI  24
OMAHA NE       CLOUDY    37  25  61 N14       30.00R
DES MOINES IA  MOCLDY    29  19  66 N12       29.96S WCI  19
DAVENPORT IA   CLOUDY    24  15  68 N12       29.95R WCI  13
CHICAGO IL     FLURRIES  26  18  71 N16       29.82R WCI  14
EAU CLAIRE WI  MOCLDY     9   6  88 W3        29.95R
LA CROSSE WI   FAIR      13   9  84 N8        29.96R WCI   2
$$

  *****  SOME NATIONAL WEATHER *****

CITY           SKY/WX    TMP DP  RH WIND       PRES   REMARKS
LA GUARDIA NY  LGT SNOW  25  20  81 SE5       29.62F VSB 3/4 WCI  19
RALEIGH NC     FAIR      36  19  50 SW13      29.70F
ATLANTA GA     FAIR      42  26  53 W9        29.85F
NEW ORLEANS LA MOCLDY    48  44  86 CALM      29.98F
OKLAHOMA CITY  FAIR      38  24  57 N9        29.96S
ALBUQUERQUE NM FAIR      35   7  31 N7        30.01F
SALT LAKE CITY CLOUDY    29  27  92 N10       30.31R FOG     WCI  20
LOS ANGELES CA FAIR      59  41  51 E5        29.96F
BOISE ID       CLOUDY    26  23  88 SE14      30.47S WCI  14
SEATTLE WA     MOCLDY    43  38  82 N10       30.39S
$$

*** WEATHER ACROSS MANITOBA...SASKATCHEWAN AND ONTARIO ***
                ***ONTARIO***

CITY           SKY/WX    TMP DP  RH WIND       PRES   REMARKS
GERALDTON      FLURRIES  -8 -13  77 NW5       29.84F WCI -19
THUNDER BAY    CLEAR     -6  -9  84 SW7       29.94S WCI -20
SIOUX LOOKOUT  PTCLDY   -15 -18  84 CALM      29.88S
TORONTO        LGT SNOW  12   7  79 N15       29.61R WCI  -4
BIG TROUT LK   CLEAR    -27 -33  75 VRB2      29.87F
PICKLE LAKE    NOT AVBL
DRYDEN         CLOUDY     0  -4  85 SW7       29.87S WCI -13
KENORA         CLOUDY     7   5  92 W6        29.89S WCI  -3
$$
                *** MANITOBA***

CITY           SKY/WX    TMP DP  RH WIND       PRES   REMARKS
BRANDON        FLURRIES  19  16  86 E2        29.95S
DAUPHIN        CLOUDY    19  19 100 NE5       29.99R WCI  13
ISLAND LAKE    MOCLDY     3   0  85 W5        29.92  WCI  -6
PILOT MOUND      N/A     18  16  93 SW2         N/A
THE PAS        FLURRIES  18  10  73 NW14G21   30.03S WCI   4
THOMPSON       FLURRIES  -4  -8  84 NW6       29.98R WCI -16
WINNIPEG       FLURRIES  12  10  92 W7        29.96F WCI   2
LYNN LAKE      CLOUDY     1   0  92 W5        30.01S WCI  -8
CHURCHILL      LGT SNOW -11 -15  84 N21       30.04F BLWGSNOWWCI -37
GILLAM         FLURRIES   1  -2  85 N8        29.96R WCI -12
$$
                ***SASKATCHEWAN***

CITY           SKY/WX    TMP DP  RH WIND       PRES   REMARKS
ESTEVAN        FLURRIES  32  28  86 NW13G20   29.97R WCI  22
KINDERSLEY     MOCLDY    32  27  80 NW15G23   30.22R WCI  22
LLOYDMINSTER   CLEAR     30  25  80 NW9       30.22S WCI  22
PRINCE ALBERT  MOCLDY    30  25  80 NW9       30.13R WCI  22
REGINA         FLURRIES  32  28  86 NW13      30.04R WCI  22
YORKTON        CLOUDY    28  27  93 N12       29.98R WC



USA.gov is the U.S. government's official web portal to all federal, state and local government web resources and services.